[[{"header":{"parameterUnit":"m.s-1","parameterCategory":1,"la1":30.2992,"la2":30.254,"lo1":-89.0895,"lo2":-89.0443,"dy":0.0025,"dx":0.0025,"nx":19,"ny":19,"refTime":"2026-04-18T09:00:00:Z","depth":0,"parameterNumber":2,"parameterNumberName":"U-component_of_WINDS"},"data":[0,0,0,2.4947,2.495,2.5114,2.5115,2.5314,2.5316,0,0,0,0,0,0,0,0,0,0,0,2.4895,2.4896,2.4947,2.4951,2.5114,2.5115,2.5314,2.5316,0,0,0,0,0,0,0,0,0,0,0,2.4894,2.4896,2.4897,2.4951,2.5114,2.5115,2.5313,2.5193,0,0,0,0,0,0,0,0,0,0,2.5036,2.4984,2.4895,2.4897,2.4952,2.5114,2.5115,2.5187,2.52,2.5236,0,2.5269,0,2.5295,2.5328,2.5329,0,0,0,2.4953,2.4973,2.5021,2.4897,2.4954,2.5113,2.5041,2.5195,2.521,2.5253,2.5272,2.5279,2.5299,2.533,2.5331,2.5529,2.553,0,0,2.4944,2.4922,2.501,2.503,2.5007,2.5036,2.5046,2.5204,2.5221,2.5272,2.5284,2.5302,2.5331,2.5332,2.5529,2.5529,0,0,0,2.4917,2.4915,2.4959,2.5022,2.5052,2.504,2.5052,2.5214,2.5231,2.5286,2.5304,2.5332,2.5334,2.5528,2.5529,2.5544,0,0,0,2.4911,2.4899,2.4955,2.4943,2.5049,2.5136,2.5059,2.522,2.5238,2.5303,2.5332,2.5336,2.5527,2.5528,2.5542,2.5555,0,0,0,2.4885,2.4896,2.4919,2.4941,2.5011,2.5134,2.5159,2.5224,2.5249,2.5329,2.5337,2.5526,2.5528,2.554,2.5552,2.5598,0,0,0,2.4851,2.4932,2.4918,2.5016,2.501,2.5143,2.5158,2.5259,2.533,2.5333,2.5527,2.5529,2.554,2.555,2.5595,2.563,2.5644,0,0,2.4941,2.4942,2.5001,2.4994,2.5124,2.512,2.5252,2.5339,2.5367,2.5473,2.5478,2.5543,2.5552,2.5597,2.5731,2.5742,0,0,0,2.5022,2.5063,2.5103,2.5169,2.5237,2.5295,2.5364,2.5395,2.5486,2.5418,2.5575,2.558,2.5608,2.5625,2.5634,2.5658,2.5537,2.5537,2.5537,2.5115,2.5146,2.5245,2.5295,2.5359,2.5427,2.5481,2.5534,2.5549,2.5585,2.5616,2.5693,2.5713,2.572,2.5744,2.5639,2.564,2.564,2.564,2.5246,2.5309,2.5324,2.5424,2.5456,2.554,2.5608,2.5615,2.5696,2.5674,2.57,2.567,2.573,2.5753,2.5641,2.5641,2.5641,2.5641,2.564,2.5308,2.5343,2.538,2.5477,2.5547,2.5595,2.5672,2.5699,2.5725,2.5751,2.5783,2.5783,2.5783,2.5765,2.5765,2.5765,2.5766,2.5766,2.5766,2.5356,2.5398,2.5459,2.5536,2.558,2.5642,2.571,2.5753,2.5808,2.5822,2.5822,2.5829,2.5732,2.5705,2.577,2.577,2.5769,2.5769,2.5768,2.5472,2.545,2.5545,2.5589,2.5679,2.5745,2.5779,2.5865,2.5905,2.5941,2.5943,2.5868,2.5871,2.5864,2.5841,2.5939,2.5939,2.5939,2.5939,2.5522,2.5527,2.5628,2.5696,2.5766,2.5805,2.5907,2.596,2.601,2.6036,2.6027,2.6,2.5992,2.6,2.599,2.5969,2.6097,2.6097,2.6097,2.5593,2.5605,2.5688,2.5738,2.581,2.587,2.5966,2.6041,2.6095,2.6104,2.6056,2.6049,2.6007,2.5992,2.5998,2.5982,2.5944,0,0]},{"header":{"parameterUnit":"m.s-1","parameterCategory":1,"la1":30.2992,"la2":30.254,"lo1":-89.0895,"lo2":-89.0443,"dy":0.0025,"dx":0.0025,"nx":19,"ny":19,"refTime":"2026-04-18T09:00:00:Z","depth":0,"parameterNumber":3,"parameterNumberName":"V-component_of_WINDS"},"data":[0,0,0,4.8555,4.8559,4.8713,4.8714,4.8914,4.8916,0,0,0,0,0,0,0,0,0,0,0,4.8516,4.8518,4.8555,4.8559,4.8713,4.8714,4.8913,4.8916,0,0,0,0,0,0,0,0,0,0,0,4.8515,4.8517,4.8519,4.856,4.8713,4.8714,4.8913,4.8794,0,0,0,0,0,0,0,0,0,0,4.8644,4.8615,4.8517,4.8519,4.8561,4.8713,4.8714,4.8789,4.8802,4.8847,0,4.8892,0,4.8907,4.893,4.893,0,0,0,4.8553,4.8604,4.864,4.852,4.8562,4.8713,4.8642,4.8796,4.8811,4.8864,4.8895,4.8902,4.891,4.8931,4.8932,4.9216,4.9217,0,0,4.8545,4.8546,4.863,4.865,4.8632,4.8637,4.8647,4.8805,4.8837,4.8895,4.8906,4.8914,4.8932,4.8934,4.9214,4.9216,0,0,0,4.8524,4.8541,4.8573,4.8642,4.867,4.8642,4.8653,4.883,4.884,4.8908,4.8916,4.8933,4.8936,4.9212,4.9215,4.9295,0,0,0,4.8519,4.8529,4.8569,4.8572,4.8667,4.8753,4.8674,4.8829,4.8847,4.8915,4.8934,4.8938,4.9211,4.9214,4.9289,4.9332,0,0,0,4.8504,4.8527,4.8552,4.8571,4.8638,4.875,4.877,4.8833,4.8852,4.893,4.8939,4.921,4.9213,4.9284,4.9323,4.9405,0,0,0,4.8487,4.8621,4.8553,4.8705,4.8637,4.88,4.8769,4.8889,4.8966,4.8935,4.9211,4.9215,4.9282,4.9318,4.94,4.9474,4.9506,0,0,4.8656,4.8641,4.873,4.8674,4.885,4.8776,4.8962,4.903,4.9035,4.9154,4.9161,4.9291,4.9323,4.9404,4.9686,4.9711,0,0,0,4.8784,4.8848,4.8894,4.8969,4.9025,4.9075,4.9114,4.9139,4.924,4.9098,4.9343,4.9362,4.941,4.9445,4.9467,4.9506,4.9232,4.9231,4.9231,4.9026,4.9025,4.9171,4.9189,4.9261,4.9299,4.9356,4.9394,4.9373,4.943,4.9466,4.9637,4.9679,4.9695,4.9736,4.9506,4.9506,4.9507,4.9507,4.9272,4.9361,4.9328,4.9458,4.9455,4.9563,4.9603,4.9583,4.968,4.9611,4.9653,4.9576,4.9722,4.9758,4.9513,4.9512,4.9511,4.9511,4.951,4.9429,4.9471,4.95,4.9605,4.9685,4.9697,4.9791,4.9785,4.9779,4.9821,4.9855,4.9854,4.985,4.9838,4.9839,4.9839,4.984,4.984,4.9841,4.958,4.9609,4.9692,4.9761,4.9806,4.9864,4.9901,4.9944,4.9989,4.9977,4.9977,4.9947,4.9738,4.9684,4.985,4.9848,4.9847,4.9846,4.9845,4.9827,4.977,4.9897,4.9942,5.002,5.0098,5.0089,5.0176,5.021,5.0256,5.0217,5.0064,5.0047,5.003,4.9985,5.0219,5.0219,5.0219,5.0219,4.9958,4.995,5.0076,5.0148,5.0218,5.0222,5.036,5.0388,5.0408,5.0428,5.0393,5.0334,5.0317,5.031,5.0287,5.0245,5.0539,5.054,5.054,5.0109,5.0106,5.0228,5.0249,5.0309,5.0359,5.0487,5.0567,5.0578,5.0553,5.0443,5.0429,5.0333,5.0303,5.0275,5.0239,5.0163,0,0]}]]